Dewpoint
14 15 18 18 18 19 19 20 18 18 16 14 17 20 22 24 23 18 17 21 19 17 16 18 20 22 24 27 33 36 38 38 38 39 41 43 46 48 49 49 49 49 49 48
11 10 9 9 11 13 17 18 19 18 16 21 24 24 21 20 19 17 14 20 19 17 18 20 21 21 23 27 31 35 37 38 37 38 41 41 42 42 43 43 43 44 45 45
10 11 9 4 12 10 10 13 15 12 20 20 18 18 17 15 14 14 16 17 17 18 20 21 21 20 24 26 29 33 37 38 37 38 39 40 40 40 40 40 40 40 40 41
13 10 5 19 23 24 19 22 25 24 20 18 16 15 14 14 14 15 17 18 18 19 19 18 19 20 24 25 27 32 35 37 37 38 38 39 39 39 38 38 38 38 39 39
12 9 7 16 16 17 16 22 22 19 17 15 15 15 11 10 16 17 18 17 16 16 16 16 18 21 23 23 26 30 33 37 36 37 37 39 38 38 38 38 37 38 39 39
13 14 5 16 14 12 15 15 18 16 15 14 14 11 11 15 17 16 15 15 15 15 16 17 18 20 20 23 26 28 32 37 37 37 38 38 38 38 38 38 38 38 38 38
15 16 12 12 11 19 14 14 16 15 14 14 14 14 15 16 14 15 15 15 16 16 16 17 18 19 20 23 25 28 32 36 36 36 37 38 38 38 38 37 36 36 35 36
16 15 11 14 11 10 15 15 15 15 15 15 15 15 14 14 14 15 15 15 16 16 17 17 18 18 19 21 24 27 30 36 36 35 35 37 38 37 36 35 33 32 32 33
16 14 14 15 14 18 16 15 15 15 15 15 14 14 14 14 14 15 14 15 15 16 16 17 18 18 19 21 23 25 28 35 34 34 34 37 37 35 34 34 32 32 32 32
13 12 12 13 16 17 16 15 15 14 14 14 14 14 14 14 14 14 15 15 16 16 17 17 19 19 20 21 22 25 27 35 34 32 33 36 36 35 34 33 32 32 31 31
10 9 12 16 17 16 15 15 14 15 15 14 14 14 14 14 14 15 15 16 17 17 18 19 19 20 20 21 22 24 26 35 33 32 33 33 35 34 34 35 34 32 32 32
6 16 16 15 17 16 15 14 15 14 15 14 14 14 14 14 15 16 16 18 18 18 18 19 19 20 20 21 22 23 26 34 32 32 31 31 32 32 35 36 36 36 35 34
16 17 17 17 15 15 15 15 14 15 14 14 14 14 15 15 16 18 17 17 18 19 20 20 19 19 21 21 22 23 27 33 32 32 31 31 31 31 31 34 35 35 36 36
17 16 14 15 15 15 14 14 15 14 14 14 15 15 15 16 16 17 17 18 20 21 23 22 20 20 22 22 23 26 28 35 32 32 31 31 31 31 32 31 30 32 35 35
16 16 16 15 15 14 15 15 14 14 14 15 15 15 16 16 17 18 19 22 24 24 27 23 21 22 23 23 24 26 29 34 32 31 32 32 32 31 31 31 31 31 32 34
16 15 15 15 14 14 15 15 14 15 15 15 15 15 16 16 17 17 20 22 23 25 28 28 25 24 25 26 26 27 31 34 32 31 31 31 31 31 31 31 31 31 31 32
16 16 15 15 15 15 15 15 15 15 16 16 16 16 16 16 16 16 18 20 23 26 27 29 29 30 30 29 29 30 34 33 32 31 31 31 31 31 31 31 31 32 31 31
15 15 15 15 15 15 15 15 15 15 16 16 17 16 15 15 16 17 18 20 22 23 24 26 29 32 30 30 30 31 34 32 32 31 31 31 31 31 31 31 32 31 31 31
14 14 14 13 13 14 15 16 16 15 16 17 17 16 16 16 17 17 18 19 19 19 20 25 28 32 30 31 32 34 33 31 31 31 31 32 31 31 31 31 31 31 32 32
13 13 12 12 12 12 14 15 16 16 16 17 17 15 15 15 17 17 16 17 18 20 24 26 28 31 32 33 34 34 32 31 31 31 31 31 31 31 31 31 31 31 31 30
13 13 12 12 12 13 14 15 15 15 16 17 16 15 15 16 16 16 14 13 14 20 22 24 26 29 33 34 33 32 32 31 31 31 31 31 31 31 31 31 31 31 31 30
13 13 12 12 12 13 13 14 15 15 15 15 15 14 14 13 14 14 15 15 18 19 20 22 24 28 31 32 32 32 31 31 31 31 31 31 31 30 30 31 31 31 30 30
13 13 13 12 12 12 13 14 15 16 15 16 15 14 14 15 16 14 12 16 19 19 19 21 23 24 25 25 29 31 31 31 31 31 31 31 31 30 31 31 31 31 30 30
12 13 13 14 13 14 13 15 16 15 16 15 16 16 15 13 13 15 17 17 19 17 17 21 21 21 20 20 22 23 28 31 31 31 31 31 30 30 30 30 30 31 31 30
12 14 15 14 14 13 14 15 15 14 15 14 14 14 15 16 15 16 16 17 16 17 15 17 18 17 16 16 17 19 20 24 28 30 30 30 29 29 29 29 30 30 30 30
14 14 15 14 14 14 13 14 14 14 15 13 13 13 13 14 14 14 15 16 15 14 14 14 17 15 15 15 15 15 17 18 19 22 23 24 26 27 27 28 28 27 27 28
15 15 14 12 13 13 12 13 12 12 14 15 11 12 11 11 12 12 12 12 13 13 13 13 13 15 14 14 14 14 14 16 18 17 17 18 19 20 21 21 21 22 23 23
Wind_Speed
23 24 23 25 24 23 24 24 25 24 23 17 15 11 13 15 16 17 19 15 17 21 22 22 21 21 21 21 20 19 19 19 21 21 20 19 13 9 5 6 8 9 9 9
20 21 20 24 23 23 23 23 26 25 25 7 7 8 12 15 17 21 22 17 19 25 24 23 22 23 22 21 20 20 18 18 19 19 19 16 13 8 4 3 3 3 6 10
9 6 16 18 11 11 12 7 8 13 4 8 10 13 17 20 21 21 16 19 24 26 23 22 22 24 23 22 21 20 19 17 18 18 18 14 12 8 4 2 1 2 4 6
11 13 6 2 4 3 5 1 1 5 5 9 11 15 24 24 13 17 21 25 27 24 25 24 24 25 21 21 21 20 20 17 16 17 17 13 10 7 3 1 1 3 5 7
5 8 18 3 1 2 3 0 1 5 8 13 17 22 20 16 21 24 26 26 26 26 27 26 25 23 21 22 21 20 19 16 15 15 17 11 9 5 1 2 3 4 7 10
2 4 6 6 2 5 3 7 4 8 13 18 20 23 22 27 28 30 28 26 26 27 27 25 24 23 23 22 21 20 19 16 14 14 15 10 6 2 2 5 7 9 11 13
14 8 10 4 5 4 6 3 7 11 16 18 20 20 29 29 29 27 28 29 28 26 25 25 24 23 23 22 20 19 18 14 13 12 13 7 2 3 7 10 13 14 15 14
7 7 9 6 0 6 6 9 12 15 17 21 22 27 29 29 30 30 29 29 28 25 24 24 23 22 23 21 20 19 19 12 12 11 10 5 5 7 10 13 15 14 15 14
7 2 4 5 4 3 8 12 16 18 20 23 26 27 28 29 30 29 30 27 25 24 25 24 23 22 23 21 20 20 19 11 10 10 7 4 7 10 11 12 13 13 13 13
4 3 1 8 4 1 11 13 16 18 21 22 25 27 29 28 26 26 26 25 24 25 26 25 23 22 22 22 20 19 19 11 9 8 6 5 7 8 10 11 13 14 14 14
10 10 2 5 3 13 16 15 18 19 20 22 24 27 27 27 27 26 26 24 24 24 25 26 24 23 22 21 19 19 17 10 8 6 4 4 6 7 8 7 10 14 14 15
5 4 4 6 11 13 14 18 20 21 25 24 23 26 27 26 25 25 25 26 26 25 25 24 23 23 21 20 17 17 17 10 7 5 5 6 8 8 7 10 13 14 15 14
2 6 8 11 10 8 16 19 20 21 22 24 24 24 26 27 26 29 27 26 25 26 25 24 23 22 20 18 16 16 16 11 6 6 6 8 9 12 13 11 16 19 19 18
3 7 3 4 9 16 16 18 19 20 20 21 23 24 24 25 27 26 26 27 28 27 24 22 22 22 20 18 15 15 15 9 6 6 7 8 9 11 13 16 17 14 18 20
1 5 7 10 12 14 15 17 21 21 23 24 24 23 23 26 26 27 27 26 25 25 20 18 18 18 16 15 14 14 14 6 6 6 7 9 10 12 13 14 16 17 18 20
7 8 6 11 13 15 17 19 19 22 23 24 24 25 25 24 24 25 24 23 24 24 20 15 16 17 16 15 14 13 12 7 7 7 8 10 11 13 14 14 16 18 17 18
6 6 11 13 15 17 17 17 17 19 22 23 25 25 25 25 24 23 25 24 25 20 21 15 17 15 14 14 13 11 8 5 9 8 10 11 11 12 14 15 15 17 17 18
4 7 9 11 14 16 18 18 18 20 20 23 23 24 24 23 22 24 24 24 22 22 18 23 20 17 16 14 13 10 6 6 9 10 11 12 12 13 15 14 16 19 19 20
6 8 10 12 13 14 16 17 18 20 20 21 22 23 22 20 20 22 22 21 19 24 27 28 30 20 14 11 9 5 6 7 9 10 11 14 14 14 15 16 17 18 18 16
8 8 10 12 13 13 15 15 16 17 17 19 20 21 23 22 21 22 21 19 17 20 27 26 26 19 13 10 3 2 5 8 10 11 12 13 15 15 15 17 19 17 16 15
8 8 10 11 13 13 12 12 14 16 17 17 18 19 21 20 19 20 20 20 25 25 26 25 23 21 13 7 4 1 3 7 10 12 13 14 16 16 16 17 17 16 16 13
8 9 11 11 12 12 12 12 13 14 16 17 18 19 20 19 20 19 16 18 22 26 22 20 20 23 16 12 7 4 1 6 9 11 12 14 15 16 17 17 16 16 15 14
8 8 9 11 12 12 13 10 12 13 15 15 16 18 18 17 16 20 22 23 21 21 19 19 24 24 21 16 14 8 3 4 8 10 12 14 16 16 16 17 16 15 14 14
8 8 8 9 10 9 12 14 13 12 13 12 12 14 16 18 17 16 17 20 25 22 19 24 25 26 23 18 17 17 14 7 7 9 12 14 15 16 16 15 15 14 13 14
7 8 6 9 10 10 11 12 11 12 14 12 12 14 15 13 12 17 17 18 23 22 20 26 29 27 20 19 19 18 18 18 13 11 11 14 15 16 16 15 14 13 12 12
6 7 7 6 6 9 10 11 11 11 12 13 11 14 14 14 14 15 16 20 19 22 20 20 22 20 20 20 19 20 20 19 18 18 17 17 17 16 15 14 13 13 12 11
5 7 7 7 7 8 9 9 9 10 11 12 11 12 13 13 14 15 18 18 18 18 19 19 19 22 20 20 20 21 21 19 23 20 19 18 18 17 16 15 15 14 13 12
Wind_Direction
273 284 287 278 271 264 257 252 257 278 284 296 333 340 329 318 321 326 320 317 328 332 329 328 328 326 324 324 325 326 323 324 323 321 317 318 299 305 287 265 250 238 220 210
290 276 275 283 276 269 263 263 266 274 284 33 345 325 317 319 320 315 315 311 324 325 326 324 324 323 320 319 321 321 319 321 322 324 324 324 320 318 307 301 299 263 216 195
286 347 309 287 308 257 249 272 292 263 335 350 336 331 322 317 313 312 321 325 321 319 319 317 317 319 315 315 318 318 316 319 321 323 325 319 323 315 304 299 268 187 172 165
289 313 266 90 62 5 271 312 212 285 321 333 329 324 312 306 310 326 329 320 316 315 314 313 314 310 310 316 314 313 313 314 316 322 321 320 313 312 309 356 176 176 155 146
264 283 288 183 69 9 330 252 80 325 326 324 322 315 301 326 345 326 318 312 310 309 308 310 308 307 317 313 311 312 313 312 314 317 315 307 309 295 290 120 125 132 137 134
227 276 284 69 51 340 273 253 46 342 327 326 328 312 307 329 319 314 313 312 311 309 307 304 308 312 311 308 308 310 317 313 309 314 314 300 286 252 103 113 102 96 94 110
236 257 270 58 347 317 258 52 342 333 322 320 309 299 306 311 310 312 311 311 310 307 304 307 309 310 303 301 305 312 315 310 307 318 315 290 232 132 118 106 99 94 93 98
210 237 261 20 202 297 1 326 331 332 323 316 310 308 308 312 313 315 312 312 310 307 306 308 307 304 300 302 305 311 314 307 306 317 311 273 161 126 114 112 107 103 102 101
233 292 87 44 345 86 358 332 327 325 323 318 312 311 314 312 311 310 309 309 309 308 307 306 305 305 301 303 307 309 311 302 306 313 300 244 158 137 130 126 125 122 119 114
308 149 311 314 136 349 347 331 323 323 318 314 311 312 309 309 310 309 309 310 312 309 306 306 307 303 299 303 303 304 308 291 303 297 282 226 158 152 152 148 141 139 135 127
259 264 328 86 160 350 334 330 324 320 315 315 316 314 312 311 310 310 309 310 310 307 302 299 301 301 300 299 301 300 303 282 291 282 255 196 161 167 164 160 157 148 143 139
289 27 338 328 341 336 332 324 324 323 323 324 321 317 316 312 311 309 310 308 306 303 301 301 301 299 298 297 296 297 299 281 274 251 221 186 155 125 127 138 138 134 136 139
0 343 310 303 317 342 325 323 325 325 323 320 323 320 315 312 312 311 312 309 308 307 303 298 295 293 294 295 294 293 293 279 260 230 207 187 169 146 139 142 140 142 139 137
17 342 314 350 322 322 322 324 325 323 325 326 322 321 317 315 315 316 314 311 305 301 294 294 294 293 294 294 291 291 295 256 232 216 196 181 171 152 145 145 142 139 136 136
85 348 305 306 310 320 329 333 331 331 331 329 327 323 324 321 318 316 312 313 312 306 298 300 300 298 300 297 295 296 299 233 215 195 182 168 155 145 142 142 141 138 136 134
331 324 326 325 323 329 335 336 331 327 327 327 328 328 324 320 317 316 320 325 324 320 320 311 308 308 307 301 296 293 290 222 196 178 163 153 148 146 141 141 142 142 140 138
343 336 331 325 328 327 325 323 322 322 324 327 328 327 326 325 322 326 326 330 326 333 329 326 309 311 309 302 290 286 272 214 186 164 159 152 148 145 142 140 140 136 132 139
310 302 308 309 314 318 321 323 325 326 328 326 328 328 328 328 325 325 327 325 328 335 336 333 327 316 304 288 277 274 227 198 174 163 151 150 145 140 143 135 134 130 131 145
330 321 322 320 321 318 318 322 325 326 326 330 331 330 329 328 329 327 328 329 338 338 334 332 331 326 322 315 289 240 183 177 163 153 150 147 142 142 141 136 133 131 139 138
339 339 336 330 328 326 319 322 325 323 330 331 331 334 334 335 335 335 333 337 342 331 331 333 338 336 331 332 310 146 179 173 161 152 148 145 146 143 140 137 136 135 131 130
342 337 335 333 328 327 329 327 326 331 335 337 338 337 332 333 339 342 343 343 340 340 341 341 344 343 344 12 22 359 187 169 159 155 153 148 145 143 140 137 134 133 132 129
333 329 327 329 328 324 332 327 334 337 341 343 344 343 339 344 343 348 351 349 335 346 344 347 349 350 357 2 355 356 134 157 151 147 144 144 142 141 139 139 135 133 132 133
318 314 316 326 328 321 321 332 340 341 341 343 345 343 344 339 338 351 346 346 348 354 350 358 1 10 15 13 10 22 49 129 141 142 142 140 136 133 135 136 130 133 132 134
316 314 320 323 323 330 345 344 339 342 338 343 350 346 350 349 345 356 344 347 356 8 3 12 17 22 24 17 19 21 21 64 104 118 127 127 128 126 128 126 127 128 129 127
313 305 308 335 342 347 339 342 345 354 348 355 359 358 358 354 349 342 347 353 1 10 9 12 23 25 23 22 23 27 25 29 46 76 100 111 114 116 114 120 126 123 120 123
327 323 329 324 324 342 337 347 350 352 349 354 355 357 354 355 354 359 0 5 7 12 12 11 19 23 25 28 29 32 33 31 39 52 60 68 81 89 95 94 94 94 96 101
317 334 345 342 350 352 340 349 352 351 351 357 349 354 357 355 358 6 9 8 9 9 11 12 15 24 25 29 32 35 36 35 46 52 51 55 59 64 68 73 75 77 78 85